Elefsis, Greece

8:46 AM EEST on May 28, 2018 (GMT +0300)
Elefsis Air Base

Weather History for LGEL - December, 2012

Change the Weather History Date:

Friday, December 28, 2012

  Actual Average Record
Temperature  
Mean Temperature 54 °F -  
Max Temperature 64 °F 54 °F 66 °F (1999)
Min Temperature 44 °F 40 °F 30 °F (2006)
Degree Days  
Heating Degree Days 11    
Growing Degree Days 4 (Base 50)    
Moisture  
Dew Point 48 °F    
Average Humidity 81    
Maximum Humidity 100    
Minimum Humidity 56    
Precipitation  
Precipitation 0.00 in - - ()
Sea Level Pressure  
Sea Level Pressure 29.99 in    
Wind  
Wind Speed 2 mph ()    
Max Wind Speed 12 mph    
Max Gust Speed -    
Visibility 6.1 miles    
Events      
Averages and records for this station are not official NWS values.
T = Trace of Precipitation, MM = Missing Value Source: Averaged Metar Reports

Daily Weather History Graph

Daily Weather History Graph

Search for Another Location

Airport or City:

Astronomy

Dec. 28, 2012 Rise Set
Actual Time 7:41 AM EET 5:13 PM EET
Civil Twilight 7:11 AM EET 5:43 PM EET
Nautical Twilight 6:38 AM EET 6:16 PM EET
Astronomical Twilight 6:06 AM EET 6:48 PM EET
Moon 5:32 PM EET 7:22 AM EET
Length of Visible Light 10h 31m
Length of Day
9h 32m
Full, 100% of the Moon is Illuminated
Dec 28
Full
Dec 28
Full
Jan 5
Last Quarter
Jan 11
New
Jan 19
First Quarter

Hourly Weather History & Observations

Time (EET) Temp. Windchill Dew Point Humidity Pressure Visibility Wind Dir Wind Speed Gust Speed Precip Events Conditions
12:50 AM 46.4 °F - 44.6 °F 93% 30.09 in - Calm Calm - N/A   Clear
1:50 AM 46.4 °F - 44.6 °F 93% 30.06 in - Calm Calm - N/A   Clear
2:50 AM 46.4 °F - 44.6 °F 93% 30.06 in - Calm Calm - N/A   Clear
3:50 AM 46.4 °F - 44.6 °F 93% 30.06 in - Calm Calm - N/A   Clear
4:50 AM 44.6 °F - 42.8 °F 93% 30.04 in - Calm Calm - N/A   Clear
5:50 AM 44.6 °F - 44.6 °F 100% 30.04 in - Calm Calm - N/A   Clear
6:20 AM 46.4 °F - 44.6 °F 93% 30.04 in - Calm Calm - N/A   Clear
6:50 AM 44.6 °F - 42.8 °F 93% 30.04 in - Calm Calm - N/A   Clear
7:20 AM 44.6 °F 43.1 °F 42.8 °F 93% 30.04 in - Variable 3.5 mph - N/A   Clear
7:50 AM 44.6 °F - 42.8 °F 93% 30.04 in - Calm Calm - N/A   Clear
8:20 AM 46.4 °F 45.2 °F 44.6 °F 93% 30.04 in - Variable 3.5 mph - N/A   Clear
8:50 AM 48.2 °F - 46.4 °F 93% 30.04 in - Variable 2.3 mph - N/A   Clear
9:20 AM 50.0 °F - 48.2 °F 94% 30.04 in - Calm Calm - N/A   Clear
9:50 AM 53.6 °F - 51.8 °F 94% 30.04 in - Calm Calm - N/A   Clear
10:20 AM 59.0 °F - 50.0 °F 72% 30.04 in - Calm Calm - N/A   Clear
10:50 AM 59.0 °F - 51.8 °F 77% 30.04 in - Calm Calm - N/A   Clear
11:20 AM 60.8 °F - 51.8 °F 72% 30.04 in 6.2 mi Variable 3.5 mph - N/A   Partly Cloudy
11:50 AM 62.6 °F - 51.8 °F 68% 30.01 in 6.2 mi Variable 3.5 mph - N/A   Partly Cloudy
12:20 PM 64.4 °F - 51.8 °F 64% 30.01 in 6.2 mi Variable 3.5 mph - N/A   Partly Cloudy
12:50 PM 64.4 °F - 48.2 °F 56% 29.98 in 6.2 mi Variable 3.5 mph - N/A   Partly Cloudy
1:20 PM 64.4 °F - 50.0 °F 59% 29.98 in 6.2 mi South 4.6 mph - N/A   Partly Cloudy
1:50 PM 64.4 °F - 51.8 °F 64% 29.95 in 6.2 mi SSW 8.1 mph - N/A   Partly Cloudy
2:20 PM 64.4 °F - 51.8 °F 64% 29.95 in 6.2 mi SSW 10.4 mph - N/A   Partly Cloudy
2:50 PM 64.4 °F - 51.8 °F 64% 29.95 in 6.2 mi South 11.5 mph - N/A   Partly Cloudy
3:20 PM 64.4 °F - 51.8 °F 64% 29.95 in 6.2 mi South 9.2 mph - N/A   Scattered Clouds
3:50 PM 62.6 °F - 50.0 °F 63% 29.95 in 6.2 mi South 8.1 mph - N/A   Scattered Clouds
4:20 PM 62.6 °F - 50.0 °F 63% 29.95 in 6.2 mi SSW 4.6 mph - N/A   Scattered Clouds
4:50 PM 62.6 °F - 50.0 °F 63% 29.95 in 6.2 mi South 4.6 mph - N/A   Scattered Clouds
5:20 PM 59.0 °F - 50.0 °F 72% 29.95 in 6.2 mi Variable 3.5 mph - N/A   Scattered Clouds
5:50 PM 57.2 °F - 51.8 °F 82% 29.95 in 6.2 mi Calm Calm - N/A   Partly Cloudy
6:20 PM 57.2 °F - 51.8 °F 82% 29.95 in 6.2 mi Calm Calm - N/A   Partly Cloudy
6:50 PM 55.4 °F - 50.0 °F 82% 29.95 in 6.2 mi Calm Calm - N/A   Partly Cloudy
7:20 PM 50.0 °F - 46.4 °F 87% 29.95 in 6.2 mi Calm Calm - N/A   Scattered Clouds
7:50 PM 50.0 °F - 46.4 °F 87% 29.95 in 6.2 mi Calm Calm - N/A   Scattered Clouds
8:20 PM 50.0 °F - 48.2 °F 94% 29.95 in 6.2 mi Calm Calm - N/A   Scattered Clouds
8:50 PM 50.0 °F - 46.4 °F 87% 29.95 in 5.6 mi Calm Calm - N/A   Scattered Clouds
9:20 PM 51.8 °F - 46.4 °F 82% 29.95 in 5.6 mi Calm Calm - N/A   Scattered Clouds
9:50 PM 51.8 °F - 46.4 °F 82% 29.95 in 5.6 mi Calm Calm - N/A   Scattered Clouds
10:20 PM 51.8 °F - 48.2 °F 88% 29.95 in 5.6 mi Calm Calm - N/A   Scattered Clouds
10:50 PM 51.8 °F - 48.2 °F 88% 29.92 in 5.6 mi Calm Calm - N/A   Scattered Clouds
11:50 PM 50.0 °F - 46.4 °F 87% 29.92 in 6.2 mi North 4.6 mph - N/A   Scattered Clouds